November 28, 2014
Temp
 
67.7 °F
 
Dew Pt.
 
42.5 °F
 
Humidity
 
40%
 
Pressure
 
1011.5 hPa 
  steady
Wind
 
0.0 mph 
    W
Rain
 
0.00 in 
  0.00 in/hr
UV index
 
0.0  
 
Solar rad.
 
0 W/m²
 
Tonight

Mostly Clear
Mostly
Clear
Saturday

Mostly Sunny
Mostly
Sunny
Lo 47 °F Hi 74 °F
Statistics - 11/28/2014
Max Temp 82.6 °F  1:40 pm
Min Temp 56.8 °F  7:00 am
Max Dew Pt 45.5 °F  4:35 pm
Min Dew Pt 26.0 °F  2:55 am
Max Pressure 1015.8 hPa  9:25 am
Min Pressure 1011.5 hPa  4:25 pm
Max Wind 8 mph  2:10 pm
Max UV 2.0   12:00 pm
Max Solar 626 W/m²  11:30 am
Max Rainfall Rate —   —
Total Precipitation —   
Current Temp 68.0 °F  6:00 pm
Temp 24hr ago 72.5 °F  6:00 pm
Difference -4.5 °F  
Temp Rate -4.5 °F/hr  
Pressure Rate -0.1 hPa/hr  
time temp dew pt pressure uv solar wind wind speed rainfall rate
00:00 61.1 °F 30.2 °F 1015.7 hPa  N 1 mph   
00:05 61.2 °F 29.5 °F 1015.6 hPa  NE 1 mph   
00:10 61.3 °F 30.4 °F 1015.6 hPa  NE 1 mph   
00:15 61.4 °F 30.5 °F 1015.6 hPa  NNE 1 mph   
00:20 61.4 °F 28.9 °F 1015.6 hPa  NNE 1 mph   
00:25 61.5 °F 29.8 °F 1015.6 hPa  NNE 1 mph   
00:30 61.3 °F 32.0 °F 1015.5 hPa  Calm    
00:35 61.2 °F 31.1 °F 1015.6 hPa  Calm    
00:40 61.1 °F 29.4 °F 1015.5 hPa  Calm    
00:45 61.1 °F 29.4 °F 1015.4 hPa  Calm    
00:50 61.0 °F 30.9 °F 1015.5 hPa  Calm    
00:55 60.9 °F 30.8 °F 1015.5 hPa  Calm    
01:00 60.8 °F 28.3 °F 1015.4 hPa  Calm    
01:05 60.8 °F 30.0 °F 1015.5 hPa  WSW 1 mph   
01:10 60.6 °F 30.6 °F 1015.5 hPa  Calm    
01:15 60.5 °F 29.7 °F 1015.4 hPa  Calm    
01:20 60.4 °F 30.4 °F 1015.4 hPa  Calm    
01:25 60.2 °F 30.2 °F 1015.4 hPa  Calm    
01:30 60.0 °F 30.1 °F 1015.4 hPa  Calm    
01:35 59.8 °F 29.9 °F 1015.3 hPa  Calm    
01:40 59.7 °F 29.0 °F 1015.3 hPa  Calm    
01:45 59.6 °F 29.7 °F 1015.2 hPa  Calm    
01:50 59.5 °F 28.8 °F 1015.3 hPa  Calm    
01:55 59.4 °F 29.5 °F 1015.3 hPa  Calm    
02:00 59.2 °F 27.8 °F 1015.3 hPa  Calm    
02:05 59.1 °F 27.7 °F 1015.3 hPa  Calm    
02:10 59.0 °F 28.4 °F 1015.4 hPa  Calm    
02:15 59.0 °F 29.2 °F 1015.3 hPa  Calm    
02:20 59.0 °F 27.6 °F 1015.3 hPa  Calm    
02:25 59.0 °F 26.8 °F 1015.2 hPa  Calm    
02:30 59.0 °F 26.8 °F 1015.2 hPa  Calm    
02:35 59.0 °F 28.4 °F 1015.1 hPa  Calm    
02:40 59.0 °F 29.2 °F 1015.1 hPa  Calm    
02:45 59.0 °F 26.8 °F 1015.1 hPa  Calm    
02:50 59.0 °F 27.6 °F 1015.1 hPa  Calm    
02:55 59.1 °F 26.0 °F 1015.0 hPa  Calm    
03:00 59.3 °F 27.9 °F 1015.0 hPa  Calm    
03:05 59.2 °F 27.0 °F 1015.0 hPa  Calm    
03:10 59.3 °F 27.1 °F 1015.0 hPa  NW 1 mph   
03:15 59.2 °F 27.8 °F 1015.0 hPa  NW 1 mph   
03:20 59.3 °F 27.9 °F 1015.0 hPa  NNW 1 mph   
03:25 59.1 °F 28.5 °F 1015.0 hPa  NNE 1 mph   
03:30 59.0 °F 29.2 °F 1015.0 hPa  N 1 mph   
03:35 59.0 °F 28.4 °F 1015.0 hPa  WSW 2 mph   
03:40 59.0 °F 29.2 °F 1015.0 hPa  W 2 mph   
03:45 59.0 °F 28.4 °F 1015.0 hPa  Calm    
03:50 59.0 °F 28.4 °F 1014.9 hPa  Calm    
03:55 59.0 °F 27.6 °F 1014.8 hPa  Calm    
04:00 59.0 °F 27.6 °F 1014.8 hPa  Calm    
04:05 59.0 °F 27.6 °F 1014.8 hPa  Calm    
04:10 59.0 °F 28.4 °F 1014.8 hPa  Calm    
04:15 58.8 °F 26.6 °F 1014.8 hPa  Calm    
04:20 58.7 °F 28.2 °F 1014.8 hPa  Calm    
04:25 58.6 °F 27.3 °F 1014.6 hPa  Calm    
04:30 58.6 °F 28.8 °F 1014.6 hPa  Calm    
04:35 58.5 °F 28.8 °F 1014.6 hPa  Calm    
04:40 58.4 °F 29.4 °F 1014.6 hPa  Calm    
04:45 58.3 °F 28.6 °F 1014.5 hPa  Calm    
04:50 58.2 °F 29.2 °F 1014.6 hPa  Calm    
04:55 58.1 °F 29.2 °F 1014.6 hPa  Calm    
05:00 58.0 °F 27.5 °F 1014.6 hPa  Calm    
05:05 58.0 °F 27.5 °F 1014.6 hPa  Calm    
05:10 58.0 °F 30.5 °F 1014.6 hPa  Calm    
05:15 57.7 °F 29.5 °F 1014.6 hPa  Calm    
05:20 57.7 °F 29.5 °F 1014.6 hPa  Calm    
05:25 57.5 °F 28.6 °F 1014.6 hPa  Calm    
05:30 57.5 °F 28.6 °F 1014.6 hPa  Calm    
05:35 57.4 °F 28.5 °F 1014.7 hPa  Calm    
05:40 57.4 °F 27.8 °F 1014.7 hPa  Calm    
05:45 57.3 °F 28.5 °F 1014.7 hPa  Calm    
05:50 57.3 °F 28.5 °F 1014.7 hPa  Calm    
05:55 57.2 °F 27.6 °F 1014.7 hPa  Calm    
06:00 57.4 °F 28.5 °F 1014.7 hPa  Calm    
06:05 57.4 °F 28.5 °F 1014.6 hPa  Calm    
06:10 57.3 °F 28.5 °F 1014.7 hPa  Calm    
06:15 57.2 °F 27.6 °F 1014.7 hPa  Calm    
06:20 57.2 °F 28.4 °F 1014.8 hPa  Calm    
06:25 57.1 °F 27.5 °F 1014.8 hPa  Calm    
06:30 57.1 °F 28.3 °F 1014.8 hPa  Calm    
06:35 57.0 °F 28.2 °F 1014.8 hPa  Calm    
06:40 57.0 °F 28.2 °F 1014.8 hPa  Calm    
06:45 56.9 °F 28.1 °F 1014.9 hPa 6 W/m²  Calm    
06:50 56.8 °F 28.0 °F 1014.8 hPa 9 W/m²  Calm    
06:55 56.8 °F 28.0 °F 1014.8 hPa 11 W/m²  Calm    
07:00 57.0 °F 26.7 °F 1014.8 hPa 14 W/m²  Calm    
07:05 57.3 °F 29.2 °F 1014.9 hPa 18 W/m²  Calm    
07:10 57.3 °F 28.5 °F 1014.9 hPa 20 W/m²  Calm    
07:15 57.3 °F 29.2 °F 1015.0 hPa 24 W/m²  Calm    
07:20 57.4 °F 29.3 °F 1014.9 hPa 25 W/m²  Calm    
07:25 57.9 °F 30.4 °F 1014.9 hPa 26 W/m²  Calm    
07:30 58.1 °F 29.9 °F 1015.0 hPa 28 W/m²  Calm    
07:35 58.1 °F 30.6 °F 1015.0 hPa 29 W/m²  Calm    
07:40 58.3 °F 31.5 °F 1015.1 hPa 58 W/m²  Calm    
07:45 58.9 °F 32.0 °F 1015.1 hPa 168 W/m²  Calm    
07:50 59.0 °F 31.4 °F 1015.2 hPa 193 W/m²  WSW 1 mph   
07:55 59.4 °F 32.4 °F 1015.3 hPa 207 W/m²  Calm    
08:00 60.2 °F 32.4 °F 1015.2 hPa 220 W/m²  Calm    
08:05 61.0 °F 32.4 °F 1015.3 hPa 237 W/m²  SW 1 mph   
08:10 61.4 °F 32.0 °F 1015.3 hPa 253 W/m²  Calm    
08:15 62.0 °F 31.0 °F 1015.4 hPa 269 W/m²  SW 3 mph   
08:20 62.7 °F 31.6 °F 1015.4 hPa 283 W/m²  WSW 1 mph   
08:25 63.5 °F 31.5 °F 1015.4 hPa 297 W/m²  E 1 mph   
08:30 64.7 °F 30.8 °F 1015.4 hPa 310 W/m²  W 1 mph   
08:35 66.4 °F 32.3 °F 1015.4 hPa 321 W/m²  WSW 1 mph   
08:40 67.9 °F 31.7 °F 1015.5 hPa 335 W/m²  Calm    
08:45 69.0 °F 31.7 °F 1015.5 hPa 351 W/m²  SW 1 mph   
08:50 69.2 °F 30.9 °F 1015.4 hPa 365 W/m²  SW 1 mph   
08:55 69.7 °F 30.2 °F 1015.5 hPa 380 W/m²  SW 4 mph   
09:00 69.9 °F 30.4 °F 1015.6 hPa 391 W/m²  E 6 mph   
09:05 70.0 °F 30.5 °F 1015.7 hPa 405 W/m²  ENE 5 mph   
09:10 70.2 °F 30.7 °F 1015.7 hPa 417 W/m²  E 5 mph   
09:15 70.8 °F 30.1 °F 1015.7 hPa 429 W/m²  E 5 mph   
09:20 71.2 °F 30.4 °F 1015.7 hPa 0.5 440 W/m²  E 5 mph   
09:25 71.5 °F 30.7 °F 1015.8 hPa 0.6 453 W/m²  ESE 3 mph   
09:30 72.1 °F 31.2 °F 1015.8 hPa 0.6 464 W/m²  ESE 2 mph   
09:35 72.7 °F 31.7 °F 1015.7 hPa 0.7 474 W/m²  ESE 4 mph   
09:40 73.0 °F 33.0 °F 1015.7 hPa 0.8 485 W/m²  E 2 mph   
09:45 73.0 °F 33.0 °F 1015.6 hPa 0.9 496 W/m²  E 2 mph   
09:50 73.0 °F 33.0 °F 1015.6 hPa 1.0 507 W/m²  SE 1 mph   
09:55 73.5 °F 32.3 °F 1015.6 hPa 1.1 516 W/m²  ESE 1 mph   
10:00 74.4 °F 33.1 °F 1015.5 hPa 1.1 526 W/m²  SSW 3 mph   
10:05 74.7 °F 33.3 °F 1015.6 hPa 1.2 534 W/m²  S 3 mph   
10:10 74.9 °F 33.5 °F 1015.5 hPa 1.3 542 W/m²  SSW 3 mph   
10:15 75.2 °F 34.8 °F 1015.5 hPa 1.3 550 W/m²  SW 4 mph   
10:20 75.3 °F 34.9 °F 1015.4 hPa 1.4 558 W/m²  SW 2 mph   
10:25 75.8 °F 31.9 °F 1015.4 hPa 1.5 566 W/m²  SSE 1 mph   
10:30 76.2 °F 33.4 °F 1015.3 hPa 1.6 573 W/m²  ESE 2 mph   
10:35 76.4 °F 32.4 °F 1015.2 hPa 1.6 580 W/m²  ENE 3 mph   
10:40 77.1 °F 34.1 °F 1015.2 hPa 1.7 586 W/m²  SSE 3 mph   
10:45 77.6 °F 33.3 °F 1015.0 hPa 1.7 593 W/m²  E 5 mph   
10:50 77.8 °F 33.5 °F 1015.0 hPa 1.8 598 W/m²  ESE 3 mph   
10:55 78.0 °F 33.7 °F 1014.9 hPa 1.8 600 W/m²  ESE 3 mph   
11:00 78.5 °F 35.3 °F 1014.8 hPa 1.8 607 W/m²  S 3 mph   
11:05 78.7 °F 35.5 °F 1014.7 hPa 1.9 609 W/m²  SSE 4 mph   
11:10 78.7 °F 35.5 °F 1014.7 hPa 1.9 612 W/m²  SW 3 mph   
11:15 79.1 °F 35.8 °F 1014.6 hPa 1.9 613 W/m²  SSW 4 mph   
11:20 78.9 °F 35.6 °F 1014.4 hPa 2.0 617 W/m²  WSW 4 mph   
11:25 79.1 °F 34.6 °F 1014.4 hPa 2.0 620 W/m²  SW 5 mph   
11:30 79.6 °F 33.7 °F 1014.3 hPa 2.0 623 W/m²  ESE 3 mph   
11:35 79.2 °F 35.9 °F 1014.2 hPa 2.0 622 W/m²  W 4 mph   
11:40 79.6 °F 35.0 °F 1014.1 hPa 2.0 622 W/m²  S 2 mph   
11:45 80.3 °F 36.8 °F 1014.0 hPa 2.0 623 W/m²  SSW 3 mph   
11:50 80.9 °F 36.0 °F 1014.0 hPa 2.0 622 W/m²  SE 5 mph   
11:55 80.5 °F 37.0 °F 1013.9 hPa 2.0 622 W/m²  SE 5 mph   
12:00 81.0 °F 36.1 °F 1013.8 hPa 2.0 621 W/m²  WSW 5 mph   
12:05 81.4 °F 38.9 °F 1013.6 hPa 1.9 617 W/m²  WSW 5 mph   
12:10 81.4 °F 37.7 °F 1013.6 hPa 1.9 616 W/m²  SW 5 mph   
12:15 81.1 °F 37.4 °F 1013.6 hPa 1.9 615 W/m²  SW 6 mph   
12:20 80.9 °F 36.0 °F 1013.5 hPa 1.8 612 W/m²  SW 6 mph   
12:25 81.5 °F 36.5 °F 1013.5 hPa 1.8 608 W/m²  SW 5 mph   
12:30 81.8 °F 38.0 °F 1013.3 hPa 1.8 605 W/m²  SW 6 mph   
12:35 81.0 °F 36.1 °F 1013.2 hPa 1.7 602 W/m²  SSW 4 mph   
12:40 81.1 °F 36.2 °F 1013.1 hPa 1.7 596 W/m²  WSW 8 mph   
12:45 81.4 °F 35.2 °F 1013.1 hPa 1.6 593 W/m²  WSW 6 mph   
12:50 81.7 °F 35.4 °F 1013.0 hPa 1.6 587 W/m²  WSW 6 mph   
12:55 81.7 °F 36.7 °F 1012.9 hPa 1.5 580 W/m²  WSW 6 mph   
13:00 81.8 °F 35.5 °F 1012.8 hPa 1.4 574 W/m²  SW 6 mph   
13:05 81.9 °F 35.6 °F 1012.7 hPa 1.4 567 W/m²  SW 6 mph   
13:10 81.8 °F 38.0 °F 1012.6 hPa 1.3 559 W/m²  SW 6 mph   
13:15 82.4 °F 37.3 °F 1012.6 hPa 1.3 552 W/m²  WSW 7 mph   
13:20 82.1 °F 38.3 °F 1012.5 hPa 1.2 543 W/m²  W 6 mph   
13:25 82.1 °F 38.3 °F 1012.5 hPa 1.1 536 W/m²  WSW 6 mph   
13:30 82.3 °F 39.6 °F 1012.4 hPa 1.0 525 W/m²  WSW 7 mph   
13:35 82.5 °F 39.8 °F 1012.3 hPa 0.9 514 W/m²  WSW 5 mph   
13:40 82.0 °F 39.4 °F 1012.3 hPa 0.9 505 W/m²  WSW 7 mph   
13:45 81.8 °F 39.2 °F 1012.3 hPa 0.8 494 W/m²  SW 7 mph   
13:50 81.7 °F 40.3 °F 1012.3 hPa 0.7 484 W/m²  WSW 6 mph   
13:55 81.8 °F 40.4 °F 1012.3 hPa 0.6 474 W/m²  W 6 mph   
14:00 81.8 °F 39.2 °F 1012.2 hPa 0.6 464 W/m²  WSW 6 mph   
14:05 81.8 °F 39.2 °F 1012.2 hPa 0.5 450 W/m²  WSW 8 mph   
14:10 81.6 °F 40.2 °F 1012.2 hPa 438 W/m²  WSW 8 mph   
14:15 81.6 °F 39.0 °F 1012.3 hPa 427 W/m²  SW 7 mph   
14:20 81.2 °F 38.7 °F 1012.2 hPa 415 W/m²  WSW 5 mph   
14:25 81.5 °F 39.0 °F 1012.1 hPa 401 W/m²  W 6 mph   
14:30 81.6 °F 39.0 °F 1012.1 hPa 387 W/m²  W 6 mph   
14:35 81.6 °F 40.2 °F 1012.0 hPa 372 W/m²  WSW 7 mph   
14:40 81.5 °F 41.2 °F 1012.0 hPa 357 W/m²  W 7 mph   
14:45 81.1 °F 41.9 °F 1011.9 hPa 344 W/m²  WSW 6 mph   
14:50 81.1 °F 41.9 °F 1011.9 hPa 330 W/m²  WSW 5 mph   
14:55 81.2 °F 42.0 °F 1011.8 hPa 312 W/m²  SW 5 mph   
15:00 80.7 °F 42.6 °F 1011.8 hPa 299 W/m²  W 5 mph   
15:05 80.7 °F 42.6 °F 1011.7 hPa 286 W/m²  WSW 5 mph   
15:10 80.3 °F 42.3 °F 1011.6 hPa 269 W/m²  WSW 4 mph   
15:15 80.3 °F 42.3 °F 1011.7 hPa 253 W/m²  WSW 6 mph   
15:20 80.2 °F 41.2 °F 1011.7 hPa 239 W/m²  WSW 6 mph   
15:25 80.4 °F 42.4 °F 1011.7 hPa 83 W/m²  WSW 5 mph   
15:30 80.5 °F 42.4 °F 1011.6 hPa 46 W/m²  SW 4 mph   
15:35 80.5 °F 42.4 °F 1011.6 hPa 44 W/m²  WSW 3 mph   
15:40 80.5 °F 43.4 °F 1011.6 hPa 41 W/m²  SW 4 mph   
15:45 80.3 °F 43.3 °F 1011.6 hPa 40 W/m²  W 4 mph   
15:50 80.2 °F 44.1 °F 1011.6 hPa 37 W/m²  WSW 4 mph   
15:55 80.0 °F 43.9 °F 1011.6 hPa 34 W/m²  W 3 mph   
16:00 79.8 °F 43.8 °F 1011.6 hPa 32 W/m²  SW 3 mph   
16:05 79.5 °F 44.4 °F 1011.6 hPa 29 W/m²  W 2 mph   
16:10 79.3 °F 44.3 °F 1011.5 hPa 26 W/m²  W 3 mph   
16:15 79.0 °F 44.9 °F 1011.5 hPa 23 W/m²  SW 2 mph   
16:20 78.7 °F 44.6 °F 1011.6 hPa 20 W/m²  WSW 1 mph   
16:25 78.2 °F 44.2 °F 1011.5 hPa 15 W/m²  WSW 3 mph   
16:30 77.5 °F 45.3 °F 1011.5 hPa 11 W/m²  SW 4 mph   
16:35 76.8 °F 45.5 °F 1011.5 hPa 8 W/m²  W 2 mph   
16:40 76.0 °F 44.0 °F 1011.6 hPa 6 W/m²  W 1 mph   
16:45 75.1 °F 44.0 °F 1011.6 hPa 1 W/m²  W 1 mph   
16:50 74.3 °F 44.1 °F 1011.6 hPa  W 1 mph   
16:55 73.7 °F 44.3 °F 1011.6 hPa  Calm    
17:00 73.1 °F 44.5 °F 1011.6 hPa  Calm    
17:05 72.6 °F 44.8 °F 1011.6 hPa  Calm    
17:10 72.2 °F 44.5 °F 1011.7 hPa  NE 1 mph   
17:15 71.9 °F 44.9 °F 1011.7 hPa  Calm    
17:20 71.3 °F 44.4 °F 1011.7 hPa  Calm    
17:25 70.9 °F 44.0 °F 1011.7 hPa  Calm    
17:30 70.4 °F 43.6 °F 1011.7 hPa  Calm    
17:35 69.9 °F 43.8 °F 1011.7 hPa  Calm    
17:40 69.6 °F 43.5 °F 1011.7 hPa  Calm    
17:45 69.1 °F 43.1 °F 1011.7 hPa  Calm    
17:50 68.8 °F 42.8 °F 1011.7 hPa  Calm    
17:55 68.5 °F 42.6 °F 1011.7 hPa  Calm    
18:00 68.1 °F 42.9 °F 1011.8 hPa  Calm